EDT,Max TemperatureF,Mean TemperatureF,Min TemperatureF,Max Dew PointF,MeanDew PointF,Min DewpointF,Max Humidity, Mean Humidity, Min Humidity, Max Sea Level PressureIn, Mean Sea Level PressureIn, Min Sea Level PressureIn, Max VisibilityMiles, Mean VisibilityMiles, Min VisibilityMiles, Max Wind SpeedMPH, Mean Wind SpeedMPH, Max Gust SpeedMPH,PrecipitationIn, CloudCover, Events, WindDirDegrees
2013-4-1,35,30,25,28,16,11,69,56,43,30.13,30.02,29.78,10,10,2,23,12,38,T,5,Snow,302
2013-4-2,40,31,22,21,15,12,81,59,37,30.29,30.20,30.13,10,10,10,23,11,31,T,3,,279
2013-4-3,46,34,22,18,15,9,74,48,22,30.47,30.38,30.28,10,10,10,16,5,23,0.00,1,,283
2013-4-4,54,39,23,26,19,16,74,49,24,30.35,30.14,29.97,10,10,10,20,11,25,T,2,,224
2013-4-5,50,41,32,27,21,15,69,47,24,30.21,30.14,29.97,10,10,10,16,9,23,0.00,3,,347
2013-4-6,59,47,35,41,24,15,64,46,28,30.20,30.00,29.68,10,10,9,26,15,32,0.04,8,Rain,137
2013-4-7,58,46,34,50,36,28,83,68,53,30.04,29.83,29.57,10,10,3,33,13,39,0.04,7,Rain,266
2013-4-8,56,45,34,52,39,28,100,87,73,30.02,29.84,29.65,10,6,1,37,14,45,0.51,7,Rain,157
2013-4-9,48,45,41,46,42,39,100,93,86,30.06,29.99,29.88,10,3,0,30,10,45,1.17,8,Fog-Rain-Thunderstorm,75
2013-4-10,42,40,37,39,37,32,92,86,79,30.03,29.97,29.84,10,7,2,26,16,33,0.41,8,Rain-Thunderstorm,62
2013-4-11,38,37,35,36,34,31,100,88,76,30.00,29.81,29.64,10,6,1,31,21,40,1.51,8,Rain-Thunderstorm,78
2013-4-12,42,38,34,38,35,32,100,87,73,29.78,29.65,29.57,10,6,2,23,13,29,0.28,8,Rain,214
2013-4-13,39,37,35,36,31,25,100,80,59,29.99,29.85,29.76,10,9,6,25,13,31,0.04,8,Rain-Snow,255
2013-4-14,50,41,32,40,33,27,89,77,65,30.11,30.00,29.86,10,9,2,24,11,28,0.06,6,Rain-Snow,129
2013-4-15,65,54,43,56,48,35,100,82,63,29.94,29.86,29.81,10,7,2,23,12,33,0.75,7,Rain,208
2013-4-16,53,48,43,46,38,31,100,72,44,30.25,30.08,29.93,10,10,8,20,10,24,0.26,6,Rain,294
2013-4-17,51,46,41,45,39,31,92,71,50,30.34,30.18,29.99,10,8,2,39,15,47,1.17,7,Rain-Thunderstorm,73
2013-4-18,64,55,45,63,52,43,100,89,78,29.91,29.66,29.43,10,6,1,33,14,40,3.30,8,Rain-Thunderstorm,131
2013-4-19,50,41,32,55,35,28,93,79,64,29.77,29.55,29.43,10,7,1,38,22,47,0.30,8,Rain-Snow,249
2013-4-20,38,33,28,32,19,13,63,54,44,30.47,30.15,29.77,10,9,2,22,11,29,T,5,Snow,289
2013-4-21,52,38,24,29,23,18,81,58,35,30.61,30.51,30.42,10,10,10,16,8,22,0.00,3,,125
2013-4-22,65,49,33,31,28,26,75,50,24,30.41,30.29,30.14,10,10,10,14,7,21,0.00,2,,137
2013-4-23,65,53,41,52,43,32,100,74,48,30.13,29.94,29.85,10,8,2,18,9,23,0.57,7,Rain,217
2013-4-24,47,41,34,40,32,24,100,73,45,30.12,29.95,29.86,10,9,6,23,10,31,0.16,7,Rain-Snow,322
2013-4-25,49,42,34,37,31,26,76,59,42,30.35,30.16,30.04,10,9,1,23,12,30,0.19,5,Rain-Snow,234
2013-4-26,64,49,33,37,32,27,75,55,34,30.42,30.35,30.29,10,10,10,21,11,28,0.00,2,,181
2013-4-27,71,57,42,43,37,32,76,51,25,30.32,30.22,30.08,10,10,10,15,8,21,0.00,1,,177
2013-4-28,64,59,53,52,46,35,86,67,47,30.06,29.92,29.84,10,10,10,17,7,21,T,7,,107
2013-4-29,73,60,47,53,49,44,96,71,46,29.94,29.88,29.85,10,8,2,14,5,17,0.00,6,,210
2013-4-30,78,68,57,59,55,50,80,64,48,29.99,29.91,29.86,10,10,10,26,14,32,0.34,5,Rain-Thunderstorm,162